Home > Weather > Maputo > Past weeks

Flag for Mozambique Past Weather in Maputo, Mozambique — Yesterday and Last 2 Weeks

Now
59 °F

Clear.


Feels Like: 58 °F
Forecast: 58 / 75 °F
Wind: 7 mph from Southwest

Location: Maputo / Mavalane

Current Time: Jul 30, 2016 at 4:09:21 AM

Latest Report: Jul 30, 2016 at 3:00 AM


Visibility: 10 mi

Pressure: 30.07 "Hg

Humidity: 77%

Dew Point: 52 °F

Location of MaputoLocation

Past Weather in Maputo — Graph

°F

Maputo Temperature Yesterday

Maximum temperature yesterday: 82 °F (at 2:00 PM)
Minimum temperature yesterday: 55 °F (at 6:00 AM)
Average temperature yesterday: 69 °F

High & Low Weather Summary for the Past Weeks

 TemperatureHumidityPressure
High90 °F (Jul 21, 2:00 PM)100% (Jul 16, 3:00 AM)30.36 "Hg (Jul 16, 3:00 AM)
Low54 °F (Jul 18, 6:00 AM)12% (Jul 21, 4:00 PM)29.86 "Hg (Jul 22, 5:00 PM)
Average68 °F69%30.10 "Hg
* Reported Jul 15 7:00 AM — Jul 30 3:00 AM, Maputo, Weather by CustomWeather, © 2016

Note: Actual official high and low records may vary slightly from our data, if they occured in-between our weather recording intervals... More about our weather records

Advertising

Maputo Weather History for the Previous 24 Hours

Scroll right to see more
 ConditionsComfort  
Time TempWeatherWind HumidityBarometerVisibility
3:00 AM
Sat, Jul 30
59 °FClear.7 mph77%30.07 "Hg10 mi
1:00 AM63 °FClear.7 mph64%30.04 "Hg10 mi
12:00 AM63 °FClear.9 mph73%30.04 "Hg10 mi
11:00 PM
Fri, Jul 29
63 °FClear.3 mph83%30.04 "Hg10 mi
10:00 PM63 °FClear.6 mph83%30.04 "Hg10 mi
9:00 PM64 °FClear.2 mph78%30.04 "Hg10 mi
8:00 PM70 °FClear.6 mph60%29.98 "Hg10 mi
7:00 PM70 °FClear.5 mph69%29.95 "Hg10 mi
6:00 PM72 °FClear.8 mph57%29.95 "Hg10 mi
5:00 PM77 °FClear.8 mph28%29.92 "Hg10 mi
4:00 PM79 °FSunny.9 mph24%29.92 "Hg10 mi
3:00 PM81 °FSunny.6 mph24%29.92 "Hg10 mi
2:00 PM82 °FSunny.7 mph20%29.92 "Hg10 mi
12:00 PM81 °FSunny.9 mph21%29.98 "Hg10 mi
11:00 AM77 °FSunny.13 mph26%29.98 "Hg10 mi
10:00 AM75 °FSunny.12 mph29%30.01 "Hg10 mi
9:00 AM72 °FSunny.6 mph38%29.98 "Hg10 mi
8:00 AM68 °FSunny.10 mph43%29.95 "Hg10 mi
7:00 AM63 °FSunny.10 mph52%29.95 "Hg10 mi
6:00 AM55 °FSunny.6 mph72%29.95 "Hg10 mi
5:00 AM57 °FClear.6 mph67%29.95 "Hg10 mi
4:00 AM59 °FClear.3 mph72%29.95 "Hg10 mi
Weather by CustomWeather, © 2016

See weather overviewHow to use our weather pages